DW9313 Weather Reports


time (UTC)temp
F
wind
direction
speed
knots
gust
knots
rain 1hr
in
rain 24hr
in
rain mn
in
humidity
%
barometer
mb
20260502230246 52 141 0.9 1.7 0.01 0.08 0.00 96 1010.3
20260502225744 52 122 1.7 4.3 0.02 0.08 0.08 96 1010.3
20260502225244 52 139 0.9 2.6 0.02 0.08 0.08 96 1010.3
20260502224744 52 136 0.9 2.6 0.02 0.08 0.08 96 1010.3
20260502223745 52 144 0.0 0.9 0.02 0.08 0.08 96 1010.3
20260502223244 52 143 0.0 0.9 0.02 0.08 0.08 96 1010.3
20260502222746 52 146 0.0 1.7 0.02 0.08 0.08 96 1010.3
20260502221745 53 145 1.7 2.6 0.02 0.08 0.08 96 1010.4
20260502220744 53 152 0.0 1.7 0.02 0.08 0.08 96 1010.5
20260502220245 53 134 0.9 2.6 0.02 0.07 0.07 96 1010.5
20260502215746 53 136 0.9 2.6 0.02 0.06 0.06 96 1010.5
20260502215244 53 149 1.7 5.2 0.02 0.06 0.06 96 1010.4
20260502214746 53 143 0.9 4.3 0.02 0.06 0.06 96 1010.4
20260502214246 53 140 0.9 2.6 0.02 0.06 0.06 96 1010.4
20260502213745 53 143 0.9 2.6 0.02 0.06 0.06 96 1010.4
20260502213244 53 125 0.9 0.9 0.02 0.06 0.06 96 1010.4
20260502212746 53 128 0.0 0.9 0.02 0.06 0.06 96 1010.4
20260502212245 52 128 0.0 0.9 0.02 0.06 0.06 96 1010.5
20260502211745 53 156 0.0 0.9 0.01 0.06 0.06 96 1010.5
20260502211245 52 131 0.0 0.9 0.01 0.06 0.06 96 1010.5
20260502210245 53 123 0.0 0.9 0.01 0.06 0.06 96 1010.5
20260502205745 53 144 0.9 1.7 0.00 0.05 0.05 96 1010.5
20260502205245 53 126 0.9 2.6 0.00 0.05 0.05 96 1010.5
20260502204746 53 129 0.9 2.6 0.00 0.05 0.05 95 1010.5
20260502204245 53 139 0.9 2.6 0.00 0.05 0.05 95 1010.5
20260502203244 53 151 1.7 4.3 0.00 0.05 0.05 95 1010.5
20260502202745 53 144 0.9 4.3 0.00 0.05 0.05 95 1010.5
20260502202246 53 135 1.7 5.2 0.00 0.05 0.05 95 1010.6
20260502201746 53 135 0.9 5.2 0.00 0.05 0.05 95 1010.5
20260502201246 53 122 1.7 4.3 0.00 0.05 0.05 95 1010.5
20260502200746 53 131 1.7 4.3 0.00 0.05 0.05 95 1010.5
20260502200246 53 134 0.9 1.7 0.00 0.05 0.05 95 1010.5
20260502195246 53 138 1.7 4.3 0.00 0.05 0.05 95 1010.6
20260502194745 53 123 1.7 4.3 0.00 0.05 0.05 95 1010.5
20260502194245 53 115 1.7 4.3 0.00 0.05 0.05 95 1010.5
20260502193747 53 152 1.7 4.3 0.00 0.05 0.05 95 1010.6
20260502193246 53 134 1.7 4.3 0.00 0.05 0.05 95 1010.6
20260502192746 53 140 1.7 5.2 0.00 0.05 0.05 95 1010.6
20260502192245 53 136 0.9 2.6 0.00 0.05 0.05 95 1010.6
20260502191746 53 142 0.0 2.6 0.00 0.05 0.05 95 1010.6
20260502191246 53 136 0.9 2.6 0.00 0.05 0.05 95 1010.7
20260502190246 53 117 0.9 2.6 0.00 0.05 0.05 95 1010.7
20260502185747 53 147 0.0 1.7 0.00 0.05 0.05 95 1010.7
20260502185245 53 112 0.0 0.9 0.00 0.05 0.05 95 1010.7
20260502184746 53 98 0.0 1.7 0.00 0.05 0.05 95 1010.7
20260502184246 53 98 0.9 2.6 0.00 0.05 0.05 95 1010.7
20260502183747 53 98 0.0 0.9 0.00 0.05 0.05 95 1010.8
20260502182747 53 111 0.0 2.6 0.00 0.05 0.05 95 1010.8
20260502182247 53 121 0.0 1.7 0.00 0.05 0.05 95 1010.8
20260502181746 52 111 1.7 4.3 0.00 0.05 0.05 95 1010.8
20260502181246 52 93 1.7 4.3 0.00 0.05 0.05 95 1010.8
20260502180246 52 124 1.7 4.3 0.00 0.05 0.05 95 1010.9
20260502164247 53 135 2.6 6.1 0.01 0.04 0.04 94 1011.1
20260502163748 53 128 4.3 8.7 0.00 0.03 0.03 93 1011.2
20260502163247 53 133 5.2 8.7 0.00 0.03 0.03 93 1011.2
20260502162747 53 132 2.6 5.2 0.00 0.03 0.03 93 1011.2
20260502162247 53 123 4.3 7.0 0.00 0.03 0.03 92 1011.2
20260502161748 53 143 4.3 7.0 0.00 0.03 0.03 92 1011.3
20260502160747 53 114 3.5 5.2 0.00 0.03 0.03 92 1011.4
20260502160247 53 131 2.6 7.0 0.00 0.03 0.03 91 1011.4
20260502152248 54 105 4.3 6.1 0.00 0.03 0.03 90 1011.8
20260502151749 54 140 2.6 5.2 0.00 0.03 0.03 90 1012.1
20260502151248 54 130 3.5 6.1 0.00 0.03 0.03 89 1012.1
20260502150747 54 139 4.3 7.0 0.00 0.03 0.03 89 1012.2
20260502150247 54 128 4.3 7.0 0.01 0.03 0.03 89 1012.3
20260502130251 54 145 2.6 6.1 0.00 0.00 0.00 88 1013.4
20260502123250 55 145 5.2 8.7 0.00 0.00 0.00 90 1013.6
20260502122750 55 169 2.6 6.1 0.00 0.00 0.00 89 1013.6
20260502122249 55 165 5.2 8.7 0.00 0.00 0.00 89 1013.6
20260502121249 55 160 4.3 7.8 0.00 0.00 0.00 89 1013.7
20260502120749 55 167 2.6 6.1 0.00 0.00 0.00 89 1013.8
20260502120249 55 167 2.6 7.0 0.00 0.00 0.00 88 1013.9
20260502115749 55 180 0.9 6.1 0.00 0.00 0.00 89 1013.9
20260502115250 55 161 5.2 8.7 0.00 0.00 0.00 88 1013.9
20260502114750 55 155 3.5 7.0 0.00 0.00 0.00 89 1013.9
20260502114249 55 189 2.6 7.8 0.00 0.00 0.00 89 1013.9
20260502113251 55 144 5.2 10.4 0.00 0.00 0.00 88 1013.9
20260502112749 55 149 4.3 7.0 0.00 0.00 0.00 88 1013.9
20260502112250 55 185 3.5 10.4 0.00 0.00 0.00 88 1013.9
20260502111749 55 184 0.9 5.2 0.00 0.00 0.00 89 1013.9
20260502111250 55 173 2.6 6.1 0.00 0.00 0.00 89 1013.9
20260502110749 55 146 4.3 10.4 0.00 0.00 0.00 88 1013.9
20260502110249 55 175 4.3 7.8 0.00 0.00 0.00 89 1014.0
20260502105749 55 162 5.2 11.3 0.00 0.00 0.00 89 1014.0
20260502105250 55 164 4.3 7.8 0.00 0.00 0.00 89 1014.0
20260502104750 55 162 2.6 6.1 0.00 0.00 0.00 90 1014.0
20260502104249 55 171 4.3 7.8 0.00 0.00 0.00 89 1014.0
20260502103250 55 177 6.1 10.4 0.00 0.00 0.00 88 1014.0
20260502102749 55 139 5.2 8.7 0.00 0.00 0.00 89 1013.9
20260502102250 55 149 3.5 8.7 0.00 0.00 0.00 88 1014.0
20260502100250 56 177 3.5 8.7 0.00 0.00 0.00 87 1013.9
20260502090750 54 145 5.2 10.4 0.00 0.00 0.00 90 1014.3
20260502090251 54 147 5.2 10.4 0.00 0.00 0.00 90 1014.3
20260502071251 53 170 0.9 4.3 0.00 0.00 0.00 91 1014.5
20260502070251 53 146 0.9 4.3 0.00 0.00 0.00 92 1014.5
20260502065751 53 149 1.7 6.1 0.00 0.00 0.00 91 1014.5
20260502065252 53 165 3.5 6.1 0.00 0.00 0.00 92 1014.5
20260502064751 52 163 2.6 7.0 0.00 0.00 0.00 92 1014.6
20260502064253 52 155 0.9 5.2 0.00 0.00 0.00 92 1014.6
20260502063251 52 160 1.7 4.3 0.00 0.00 0.00 92 1014.6
20260502062752 52 210 1.7 7.0 0.00 0.00 0.00 92 1014.6
20260502062251 52 147 2.6 7.8 0.00 0.00 0.00 92 1014.6
20260502061752 52 168 1.7 5.2 0.00 0.00 0.00 93 1014.6
20260502061251 52 156 2.6 6.1 0.00 0.00 0.00 93 1014.6
20260502060752 52 177 1.7 5.2 0.00 0.00 0.00 93 1014.6
20260502055753 52 155 1.7 5.2 0.00 0.00 0.00 93 1014.6
20260502055252 52 170 0.9 4.3 0.00 0.00 0.00 93 1014.5
20260502054752 52 142 0.9 5.2 0.00 0.00 0.00 93 1014.5
20260502053752 52 160 0.9 4.3 0.00 0.00 0.00 93 1014.5
20260502053251 52 171 0.9 4.3 0.00 0.00 0.00 93 1014.6
20260502052753 52 169 1.7 5.2 0.00 0.00 0.00 93 1014.6
20260502052253 52 140 1.7 6.1 0.00 0.00 0.00 93 1014.6
20260502050752 52 142 1.7 5.2 0.00 0.00 0.00 93 1014.7
20260502045753 52 151 0.9 2.6 0.00 0.00 0.00 93 1014.8
20260502045252 52 145 0.9 2.6 0.00 0.00 0.00 92 1014.8
20260502044752 52 151 0.9 2.6 0.00 0.00 0.00 92 1014.7
20260502044254 52 141 0.9 2.6 0.00 0.00 0.00 92 1014.7
20260502043752 52 135 1.7 5.2 0.00 0.00 0.00 92 1014.8
20260502043254 52 173 1.7 4.3 0.00 0.00 0.00 92 1014.8
20260502042752 52 150 0.9 2.6 0.00 0.00 0.00 92 1014.9
20260502042253 52 153 0.9 5.2 0.00 0.00 0.00 92 1014.8
20260502041753 52 173 0.9 6.1 0.00 0.00 0.00 92 1014.9
20260502041252 52 173 1.7 5.2 0.00 0.00 0.00 92 1014.9
20260502040754 52 160 1.7 5.2 0.00 0.00 0.00 92 1014.9
20260502040252 52 151 1.7 5.2 0.00 0.00 0.00 92 1015.0
20260502035253 53 162 1.7 6.1 0.00 0.00 0.00 93 1015.1
20260502034754 53 139 0.9 4.3 0.00 0.00 0.00 93 1015.2
20260502034253 52 173 0.0 0.9 0.00 0.00 0.00 92 1015.2
20260502033253 52 204 0.0 0.9 0.00 0.00 0.00 93 1015.3
20260502032755 52 324 0.0 2.6 0.00 0.00 0.00 93 1015.3
20260502032253 52 157 0.0 0.0 0.00 0.00 0.00 93 1015.4
20260502031753 52 130 0.0 0.9 0.00 0.00 0.00 93 1015.4
20260502031254 52 158 0.0 0.9 0.00 0.00 0.00 93 1015.5
20260502030254 52 145 0.0 2.6 0.00 0.00 0.00 93 1015.5
20260502025753 52 180 0.9 1.7 0.00 0.00 0.00 93 1015.5
20260502025255 52 157 0.9 4.3 0.00 0.00 0.00 93 1015.4
20260502024253 53 158 0.0 4.3 0.00 0.00 0.00 93 1015.5
20260502023755 53 176 1.7 5.2 0.00 0.00 0.00 93 1015.6
20260502023254 53 190 0.0 1.7 0.00 0.00 0.00 93 1015.6
20260502022254 53 169 0.0 2.6 0.00 0.00 0.00 93 1015.6
20260502021254 52 161 0.9 4.3 0.00 0.00 0.00 93 1015.7
20260502020754 52 183 0.0 1.7 0.00 0.00 0.00 93 1015.8
20260502020254 53 302 0.0 0.9 0.00 0.00 0.00 93 1015.9
20260502015254 53 165 0.0 4.3 0.00 0.00 0.00 93 1016.1
20260502014255 53 155 0.0 1.7 0.00 0.00 0.00 93 1016.2
20260502013753 53 165 0.0 0.9 0.00 0.00 0.00 93 1016.3
20260502013254 53 169 0.0 1.7 0.00 0.00 0.00 94 1016.4
20260502012755 53 172 0.0 1.7 0.00 0.00 0.00 93 1016.4
20260502011754 53 180 0.0 0.9 0.00 0.00 0.00 93 1016.6
20260502011254 53 160 0.0 2.6 0.00 0.00 0.00 93 1016.6
20260502010754 53 145 0.0 1.7 0.00 0.00 0.00 93 1016.6
20260502005754 53 154 0.0 2.6 0.00 0.00 0.00 94 1016.7
20260502004754 53 152 0.9 1.7 0.00 0.00 0.00 94 1016.8
20260502004254 53 186 0.0 0.9 0.00 0.00 0.00 94 1016.9
20260502003755 53 148 0.0 0.9 0.00 0.00 0.00 94 1016.9
20260502003254 53 185 0.0 0.9 0.00 0.00 0.00 94 1017.0
20260502002756 53 154 0.0 0.9 0.00 0.00 0.00 94 1017.0
20260502002255 53 143 0.9 2.6 0.00 0.00 0.00 94 1017.0
20260502001755 52 153 0.9 2.6 0.00 0.00 0.00 94 1017.0
20260502001255 52 162 0.0 2.6 0.00 0.00 0.00 93 1016.9
20260502000756 53 135 0.0 1.7 0.00 0.00 0.00 93 1017.0
20260502000255 53 153 0.9 1.7 0.00 0.00 0.00 93 1017.0
20260501235755 53 156 0.0 0.0 0.00 0.00 0.00 93 1017.1
20260501235255 53 284 0.0 0.9 0.00 0.00 0.00 93 1017.2
20260501234755 53 204 0.0 0.9 0.00 0.00 0.00 93 1017.2
20260501234256 52 2 0.0 0.9 0.00 0.00 0.00 93 1017.2
20260501233755 53 201 0.0 0.9 0.00 0.00 0.00 93 1017.3
20260501233255 53 164 0.0 0.9 0.00 0.00 0.00 93 1017.2
20260501232255 53 154 0.0 0.9 0.00 0.00 0.00 93 1017.4
20260501231755 53 159 0.0 1.7 0.00 0.00 0.00 93 1017.4
20260501231256 53 130 0.0 0.9 0.00 0.00 0.00 93 1017.4
20260501230812 53 205 0.0 0.9 0.00 0.00 0.00 93 1017.3